This demonstration page uses our WeatherBlox Daily Observations layout. Learn more.

Left ArrowRight Arrow

Hourly Observations for July 30, 2020

Temp ( °F °C ) Dew Point ( °F °C ) Humidity (%) Winds ( mph kmh ) Pressure ( in mb ) Visibility ( mi km ) Precip ( " mm )
12:51 am 00:51 Clear 84 28.9 51 10.6 32 32 Calm 29.72 1007 10 16.0934 0 0
1:51 am 01:51 Clear 84 28.9 50 10 31 31 VRB 3 6 29.72 1006 10 16.0934 0 0
2:51 am 02:51 Clear 81 27.2 49 9.4 33 33 NNE 3 6 29.72 1007 10 16.0934 0 0
3:51 am 03:51 Clear 76 24.4 51 10.6 42 42 Calm 29.74 1007 10 16.0934 0 0
4:51 am 04:51 Clear 77 25 49 9.4 37 37 Calm 29.75 1007 10 16.0934 0 0
5:51 am 05:51 Sunny 75 23.9 49 9.4 40 40 Calm 29.77 1008 10 16.0934 0 0
6:51 am 06:51 Sunny 84 28.9 49 9.4 30 30 Calm 29.78 1008 10 16.0934 0 0
7:51 am 07:51 Sunny 87 30.6 50 10 28 28 SE 3 6 29.8 1009 10 16.0934 0 0
8:51 am 08:51 Sunny 91 32.8 49 9.4 24 24 VRB 5 7 29.79 1009 10 16.0934 0 0
9:51 am 09:51 Sunny 98 36.7 46 7.8 17 17 WNW 10 17 29.78 1009 10 16.0934 0 0
10:51 am 10:51 Sunny 102 38.9 44 6.7 14 14 W 12 19 29.77 1008 10 16.0934 0 0
11:51 am 11:51 Sunny 106 41.1 40 4.4 10 10 W 8 13 29.75 1007 10 16.0934 0 0
12:51 pm 12:51 Sunny 108 42.2 39 3.9 9 9 VRB 7 11 29.72 1006 10 16.0934 0 0
1:51 pm 13:51 Sunny 110 43.3 35 1.7 8 8 SW 8 13 29.69 1005 10 16.0934 0 0
2:51 pm 14:51 Sunny 111 43.9 37 2.8 8 8 SW 8 13 29.67 1005 10 16.0934 0 0
3:51 pm 15:51 Sunny 111 43.9 35 1.7 7 7 SSW 9 15 29.65 1004 10 16.0934 0 0
4:51 pm 16:51 Sunny 112 44.4 33 0.6 7 7 W 16 26 29.63 1003 10 16.0934 0 0
5:51 pm 17:51 Sunny 109 42.8 30 -1.1 6 6 W 9 15 29.63 1003 10 16.0934 0 0
6:51 pm 18:51 Sunny 108 42.2 34 1.1 8 8 WNW 13 20 29.62 1003 10 16.0934 0 0
7:51 pm 19:51 Clear 102 38.9 41 5 12 12 WNW 12 19 29.65 1004 10 16.0934 0 0
8:51 pm 20:51 Clear 99 37.2 42 5.6 14 14 WNW 17 28 29.67 1005 10 16.0934 0 0
9:51 pm 21:51 Clear 95 35 42 5.6 16 16 NW 9 15 29.68 1005 10 16.0934 0 0
10:51 pm 22:51 Clear 92 33.3 41 5 17 17 NW 9 15 29.68 1005 10 16.0934 0 0
11:51 pm 23:51 Clear 91 32.8 41 5 17 17 NNW 12 19 29.68 1005 10 16.0934 0 0

Powered by AerisWeather